Weather History for KSLE - December, 2012

Change the Weather History Date:

Tuesday, December 4, 2012

  Actual Average Record
Temperature  
Mean Temperature 53 °F 41 °F  
Max Temperature 58 °F 48 °F 63 °F (1945)
Min Temperature 47 °F 35 °F 18 °F (1972)
Degree Days  
Heating Degree Days 12 24  
Month to date heating degree days 59 93  
Since 1 July heating degree days 973 1210  
Cooling Degree Days 0 0  
Month to date cooling degree days 0 0  
Year to date cooling degree days 317 290  
Growing Degree Days 4 (Base 50)    
Moisture  
Dew Point 52 °F    
Average Humidity 90    
Maximum Humidity 100    
Minimum Humidity 80    
Precipitation  
Precipitation 0.93 in 0.24 in 2.55 in (1989)
Month to date precipitation 2.57 0.99  
Year to date precipitation 49.57 33.80  
Snow  
Snow 0.00 in - - ()
Snow Depth 0.00 in    
Sea Level Pressure  
Sea Level Pressure 29.79 in    
Wind  
Wind Speed 12 mph (SSW)    
Max Wind Speed 28 mph    
Max Gust Speed 38 mph    
Visibility 7 miles    
Events Rain    
T = Trace of Precipitation, MM = Missing Value Source: NWS Daily Summary

Daily Weather History Graph

Daily Weather History Graph

Search for Another Location

Airport or City:

Trip Planner

Search our weather history database for the weather conditions in past years. The results will help you decide how hot, cold, wet, or windy it might be!

Date:

Astronomy

Dec. 04, 2012 Rise Set
Actual Time 7:33 AM PST 4:31 PM PST
Civil Twilight 7:00 AM PST 5:04 PM PST
Nautical Twilight 6:23 AM PST 5:41 PM PST
Astronomical Twilight 5:48 AM PST 6:16 PM PST
Moon 10:34 PM PST (12/4) 11:21 AM PST (12/4)
Length of Visible Light 10h 04m
Length of Day
8h 57m
Waning Gibbous, 68% of the Moon is Illuminated
Dec 4
Waning Gibbous
Dec 6
Last Quarter
Dec 13
New
Dec 19
First Quarter
Dec 28
Full

Hourly Weather History & Observations

Time (PST) Temp. Dew Point Humidity Pressure Visibility Wind Dir Wind Speed Gust Speed Precip Events Conditions
12:56 AM 48.0 °F 46.0 °F 93% 29.60 in 7.0 mi South 15.0 mph 24.2 mph 0.22 in Rain Rain
1:56 AM 51.1 °F 48.0 °F 89% 29.63 in 7.0 mi South 25.3 mph 38.0 mph 0.11 in Rain Light Rain
2:04 AM 51.8 °F 48.2 °F 88% 29.63 in 5.0 mi South 27.6 mph 36.8 mph 0.01 in Rain Heavy Rain
2:56 AM 52.0 °F 50.0 °F 93% 29.66 in 5.0 mi South 19.6 mph 32.2 mph 0.08 in   Overcast
3:56 AM 52.0 °F 51.1 °F 97% 29.69 in 6.0 mi South 17.3 mph - 0.02 in   Overcast
4:49 AM 53.6 °F 51.8 °F 94% 29.71 in 7.0 mi South 15.0 mph 24.2 mph 0.02 in Rain Light Rain
4:56 AM 53.1 °F 52.0 °F 96% 29.72 in 7.0 mi South 12.7 mph 24.2 mph 0.03 in Rain Light Rain
5:56 AM 54.0 °F 52.0 °F 93% 29.74 in 10.0 mi South 11.5 mph - 0.01 in Rain Light Rain
6:03 AM 53.6 °F 51.8 °F 94% 29.74 in 10.0 mi South 11.5 mph - 0.00 in Rain Light Rain
6:21 AM 53.6 °F 53.6 °F 100% 29.75 in 10.0 mi South 8.1 mph - 0.01 in   Overcast
6:50 AM 53.6 °F 53.6 °F 100% 29.77 in 10.0 mi South 13.8 mph 19.6 mph 0.01 in   Overcast
6:56 AM 54.0 °F 53.1 °F 97% 29.77 in 10.0 mi South 12.7 mph - 0.01 in Rain Light Rain
7:56 AM 55.0 °F 53.1 °F 93% 29.78 in 10.0 mi South 17.3 mph 23.0 mph 0.00 in   Overcast
8:56 AM 55.9 °F 53.1 °F 90% 29.81 in 4.0 mi South 12.7 mph 21.9 mph 0.00 in Rain Light Rain
9:56 AM 57.0 °F 54.0 °F 89% 29.83 in 7.0 mi South 15.0 mph - 0.00 in Rain Light Rain
10:56 AM 57.0 °F 54.0 °F 89% 29.85 in 10.0 mi South 11.5 mph - 0.00 in   Overcast
11:42 AM 57.2 °F 53.6 °F 88% 29.82 in 10.0 mi South 12.7 mph 21.9 mph 0.00 in Rain Light Rain
11:56 AM 57.0 °F 54.0 °F 89% 29.82 in 10.0 mi South 12.7 mph - 0.00 in Rain Light Rain
12:56 PM 57.0 °F 54.0 °F 89% 29.81 in 10.0 mi South 12.7 mph - 0.00 in   Overcast
1:56 PM 57.0 °F 54.0 °F 89% 29.81 in 6.0 mi SSW 10.4 mph - 0.01 in Rain Light Rain
2:14 PM 57.2 °F 53.6 °F 88% 29.80 in 3.0 mi South 13.8 mph - 0.01 in Rain Light Rain
2:43 PM 55.4 °F 55.4 °F 100% 29.80 in 2.0 mi SW 5.8 mph - 0.05 in Rain Rain
2:56 PM 55.9 °F 55.0 °F 97% 29.80 in 2.0 mi South 4.6 mph - 0.08 in Rain Rain
3:56 PM 57.0 °F 55.0 °F 93% 29.80 in 3.0 mi South 8.1 mph - 0.04 in Rain Rain
4:05 PM 57.2 °F 55.4 °F 94% 29.80 in 3.0 mi South 8.1 mph - 0.02 in Rain Rain
4:56 PM 51.1 °F 50.0 °F 96% 29.81 in 3.0 mi North 4.6 mph - 0.08 in Rain Light Rain
5:56 PM 52.0 °F 52.0 °F 100% 29.79 in 5.0 mi South 8.1 mph - 0.04 in Rain Rain
6:56 PM 57.0 °F 54.0 °F 89% 29.79 in 10.0 mi South 11.5 mph - 0.05 in Rain Light Rain
7:37 PM 55.4 °F 55.4 °F 100% 29.81 in 7.0 mi SSW 12.7 mph - 0.04 in Rain Light Rain
7:51 PM 55.4 °F 53.6 °F 94% 29.81 in 5.0 mi SSW 8.1 mph - 0.04 in Rain Light Rain
7:56 PM 55.9 °F 54.0 °F 93% 29.82 in 7.0 mi SSW 10.4 mph - 0.04 in Rain Light Rain
8:11 PM 53.6 °F 51.8 °F 94% 29.83 in 4.0 mi WNW 9.2 mph - 0.02 in Rain Heavy Rain
8:21 PM 51.8 °F 51.8 °F 100% 29.85 in 2.5 mi West 12.7 mph 18.4 mph 0.07 in Rain Heavy Rain
8:30 PM 51.8 °F 50.0 °F 94% 29.84 in 4.0 mi WSW 9.2 mph - 0.11 in Rain Light Rain
8:56 PM 52.0 °F 48.0 °F 86% 29.87 in 10.0 mi West 10.4 mph - 0.11 in   Overcast
9:56 PM 50.0 °F 44.1 °F 80% 29.91 in 10.0 mi West 3.5 mph - 0.00 in   Overcast
10:56 PM 50.0 °F 44.1 °F 80% 29.95 in 10.0 mi North - - N/A   Overcast
11:56 PM 48.9 °F 44.1 °F 83% 29.99 in 10.0 mi Variable 6.9 mph - N/A   Overcast